Location: Home
(42.5358°N, 72.7383°W)
Time: 16:41:14
(UTC-04:00)

Explorer 11/Cluster Stage 4 - Pass Details

Date: 07 August 2024
Orbit: 464 x 1208 km, 28.8° (Epoch: 19 September)

Event Time Altitude Azimuth Distance (km) Brightness Sun altitude
Rises 00:27:56 0° 218° (SW) 3,568 - -30.8°
Reaches altitude 10° 00:31:15 10° 201° (SSW) 2,761 - -30.9°
Maximum altitude 00:35:47 19° 159° (SSE) 2,331 - -31.0°
Drops below altitude 10° 00:40:44 10° 119° (ESE) 3,050 - -31.1°
Sets 00:44:38 0° 103° (ESE) 4,079 - -31.1°
